Location: Mahannah Oil Field
(37.4664°N, 96.6003°W)
Time: 10:17:36
(UTC+00:00)

Altair - Pass Details

Date: 23 January 2021
Orbit: 1501 x 1682 km, 47.2° (Epoch: 24 February)

Event Time Altitude Azimuth Distance (km) Brightness Sun altitude
Exits shadow 11:20:19 27° 225° (SW) 2,759 8.5 -26.8°
Maximum altitude 11:26:32 79° 143° (SE) 1,697 7.6 -25.6°
Drops below altitude 10° 11:36:43 10° 59° (ENE) 3,948 10.3 -23.6°
Sets 11:39:53 0° 59° (ENE) 4,936 10.9 -23.0°
